owner,sensor,date,latitude,longitude,vertical_datum,wind_speed,wind_to_direction,wind_speed_of_gust,qcFlag 
TCOON,ioos:station:TCOON:068:1,2009-10-01T00:00:00Z,27.2970,-97.4049,0.0,7.6,122.0,9.2,'11111222,11111222,11111222' 
TCOON,ioos:station:TCOON:068:1,2009-10-01T01:00:00Z,27.2970,-97.4049,0.0,8.0,122.0,9.3,'11111222,11111222,11111222' 
TCOON,ioos:station:TCOON:068:1,2009-10-01T03:00:00Z,27.2970,-97.4049,0.0,6.7,126.0,8.0,'11111222,11111222,11111222' 
TCOON,ioos:station:TCOON:068:1,2009-10-01T04:00:00Z,27.2970,-97.4049,0.0,6.3,126.0,8.0,'11111222,11111222,11111222' 
TCOON,ioos:station:TCOON:068:1,2009-10-01T05:00:00Z,27.2970,-97.4049,0.0,7.6,136.0,9.7,'11111222,11111222,11111222' 
TCOON,ioos:station:TCOON:068:1,2009-10-01T06:00:00Z,27.2970,-97.4049,0.0,6.3,138.0,7.8,'11111222,11111222,11111222' 
TCOON,ioos:station:TCOON:068:1,2009-10-01T07:00:00Z,27.2970,-97.4049,0.0,7.7,147.0,9.3,'11111222,11111222,11111222' 
TCOON,ioos:station:TCOON:068:1,2009-10-01T08:00:00Z,27.2970,-97.4049,0.0,7.5,147.0,14.3,'11111222,11111222,11111222' 
TCOON,ioos:station:TCOON:068:1,2009-10-01T09:00:00Z,27.2970,-97.4049,0.0,7.6,153.0,9.1,'11111222,11111222,11111222' 
TCOON,ioos:station:TCOON:068:1,2009-10-01T10:00:00Z,27.2970,-97.4049,0.0,6.6,167.0,8.2,'11111222,11111222,11111222' 
TCOON,ioos:station:TCOON:068:1,2009-10-01T11:00:00Z,27.2970,-97.4049,0.0,5.4,161.0,6.6,'11111222,11111222,11111222' 
TCOON,ioos:station:TCOON:068:1,2009-10-01T12:00:00Z,27.2970,-97.4049,0.0,5.7,161.0,6.8,'11111222,11111222,11111222' 
TCOON,ioos:station:TCOON:068:1,2009-10-01T13:00:00Z,27.2970,-97.4049,0.0,6.2,162.0,8.1,'11111222,11111222,11111222' 
TCOON,ioos:station:TCOON:068:1,2009-10-01T14:00:00Z,27.2970,-97.4049,0.0,6.4,161.0,7.5,'11111222,11111222,11111222' 
TCOON,ioos:station:TCOON:068:1,2009-10-01T15:00:00Z,27.2970,-97.4049,0.0,7.8,168.0,8.8,'11111222,11111222,11111222' 
TCOON,ioos:station:TCOON:068:1,2009-10-01T16:00:00Z,27.2970,-97.4049,0.0,7.4,169.0,8.5,'11111222,11111222,11111222' 
TCOON,ioos:station:TCOON:068:1,2009-10-01T17:00:00Z,27.2970,-97.4049,0.0,6.9,149.0,8.9,'11111222,11111222,11111222' 
TCOON,ioos:station:TCOON:068:1,2009-10-01T18:00:00Z,27.2970,-97.4049,0.0,7.6,138.0,9.0,'11111222,11111222,11111222' 
TCOON,ioos:station:TCOON:068:1,2009-10-01T19:00:00Z,27.2970,-97.4049,0.0,8.7,131.0,11.0,'11111222,11111222,11111222' 
TCOON,ioos:station:TCOON:068:1,2009-10-01T20:00:00Z,27.2970,-97.4049,0.0,8.8,134.0,10.8,'11111222,11111222,11111222' 
TCOON,ioos:station:TCOON:068:1,2009-10-01T21:00:00Z,27.2970,-97.4049,0.0,9.5,133.0,11.6,'11111222,11111222,11111222' 
TCOON,ioos:station:TCOON:068:1,2009-10-01T22:00:00Z,27.2970,-97.4049,0.0,9.1,133.0,11.6,'11111222,11111222,11111222' 
TCOON,ioos:station:TCOON:068:1,2009-10-01T23:00:00Z,27.2970,-97.4049,0.0,9.9,139.0,11.9,'11111222,11111222,11111222' 
TCOON,ioos:station:TCOON:068:1,2009-10-02T00:00:00Z,27.2970,-97.4049,0.0,8.7,134.0,11.5,'11111222,11111222,11111222' 
TCOON,ioos:station:TCOON:068:1,2009-10-02T01:00:00Z,27.2970,-97.4049,0.0,8.0,139.0,10.6,'11111222,11111222,11111222' 
TCOON,ioos:station:TCOON:068:1,2009-10-02T02:00:00Z,27.2970,-97.4049,0.0,8.8,147.0,11.1,'11111222,11111222,11111222' 
TCOON,ioos:station:TCOON:068:1,2009-10-02T03:00:00Z,27.2970,-97.4049,0.0,8.5,149.0,9.9,'11111222,11111222,11111222' 
TCOON,ioos:station:TCOON:068:1,2009-10-02T04:00:00Z,27.2970,-97.4049,0.0,8.1,154.0,10.2,'11111222,11111222,11111222' 
TCOON,ioos:station:TCOON:068:1,2009-10-02T05:00:00Z,27.2970,-97.4049,0.0,8.5,161.0,10.3,'11111222,11111222,11111222' 
TCOON,ioos:station:TCOON:068:1,2009-10-02T06:00:00Z,27.2970,-97.4049,0.0,8.0,160.0,9.8,'11111222,11111222,11111222' 
TCOON,ioos:station:TCOON:068:1,2009-10-02T07:00:00Z,27.2970,-97.4049,0.0,7.2,164.0,8.9,'11111222,11111222,11111222' 
TCOON,ioos:station:TCOON:068:1,2009-10-02T08:00:00Z,27.2970,-97.4049,0.0,7.4,162.0,8.7,'11111222,11111222,11111222' 
TCOON,ioos:station:TCOON:068:1,2009-10-02T09:00:00Z,27.2970,-97.4049,0.0,7.7,161.0,9.3,'11111222,11111222,11111222' 
TCOON,ioos:station:TCOON:068:1,2009-10-02T10:00:00Z,27.2970,-97.4049,0.0,6.2,155.0,7.2,'11111222,11111222,11111222' 
TCOON,ioos:station:TCOON:068:1,2009-10-02T11:00:00Z,27.2970,-97.4049,0.0,5.3,153.0,5.9,'11111222,11111222,11111222' 
TCOON,ioos:station:TCOON:068:1,2009-10-02T12:00:00Z,27.2970,-97.4049,0.0,4.6,159.0,5.4,'11111222,11111222,11111222' 
TCOON,ioos:station:TCOON:068:1,2009-10-02T13:00:00Z,27.2970,-97.4049,0.0,3.1,158.0,3.7,'11111222,11111222,11111222' 
TCOON,ioos:station:TCOON:068:1,2009-10-02T14:00:00Z,27.2970,-97.4049,0.0,5.6,192.0,7.2,'11111222,11111222,11111222' 
TCOON,ioos:station:TCOON:068:1,2009-10-02T15:00:00Z,27.2970,-97.4049,0.0,3.1,226.0,3.4,'11111222,11111222,11111222' 
TCOON,ioos:station:TCOON:068:1,2009-10-02T16:00:00Z,27.2970,-97.4049,0.0,9.8,6.0,16.7,'11111222,11111222,11111222' 
TCOON,ioos:station:TCOON:068:1,2009-10-02T17:00:00Z,27.2970,-97.4049,0.0,8.3,34.0,9.6,'11111222,11111222,11111222' 
TCOON,ioos:station:TCOON:068:1,2009-10-02T18:00:00Z,27.2970,-97.4049,0.0,6.8,82.0,7.9,'11111222,11111222,11111222' 
TCOON,ioos:station:TCOON:068:1,2009-10-02T19:00:00Z,27.2970,-97.4049,0.0,3.8,65.0,4.3,'11111222,11111222,11111222' 
TCOON,ioos:station:TCOON:068:1,2009-10-02T20:00:00Z,27.2970,-97.4049,0.0,5.2,29.0,6.5,'11111222,11111222,11111222' 
TCOON,ioos:station:TCOON:068:1,2009-10-02T21:00:00Z,27.2970,-97.4049,0.0,6.2,56.0,7.3,'11111222,11111222,11111222' 
TCOON,ioos:station:TCOON:068:1,2009-10-02T22:00:00Z,27.2970,-97.4049,0.0,6.2,32.0,7.5,'11111222,11111222,11111222' 
TCOON,ioos:station:TCOON:068:1,2009-10-02T23:00:00Z,27.2970,-97.4049,0.0,8.1,33.0,9.6,'11111222,11111222,11111222' 
TCOON,ioos:station:TCOON:068:1,2009-10-03T00:00:00Z,27.2970,-97.4049,0.0,7.7,33.0,9.0,'11111222,11111222,11111222' 
TCOON,ioos:station:TCOON:068:1,2009-10-03T01:00:00Z,27.2970,-97.4049,0.0,6.5,36.0,7.5,'11111222,11111222,11111222' 
TCOON,ioos:station:TCOON:068:1,2009-10-03T02:00:00Z,27.2970,-97.4049,0.0,6.4,44.0,7.6,'11111222,11111222,11111222' 
TCOON,ioos:station:TCOON:068:1,2009-10-03T03:00:00Z,27.2970,-97.4049,0.0,6.2,55.0,6.9,'11111222,11111222,11111222' 
TCOON,ioos:station:TCOON:068:1,2009-10-03T04:00:00Z,27.2970,-97.4049,0.0,5.3,74.0,5.8,'11111222,11111222,11111222' 
TCOON,ioos:station:TCOON:068:1,2009-10-03T05:00:00Z,27.2970,-97.4049,0.0,4.2,117.0,5.1,'11111222,11111222,11111222' 
TCOON,ioos:station:TCOON:068:1,2009-10-03T06:00:00Z,27.2970,-97.4049,0.0,3.5,127.0,4.1,'11111222,11111222,11111222' 
TCOON,ioos:station:TCOON:068:1,2009-10-03T07:00:00Z,27.2970,-97.4049,0.0,3.4,123.0,4.2,'11111222,11111222,11111222' 
TCOON,ioos:station:TCOON:068:1,2009-10-03T08:00:00Z,27.2970,-97.4049,0.0,2.4,142.0,3.0,'11111222,11111222,11111222' 
TCOON,ioos:station:TCOON:068:1,2009-10-03T09:00:00Z,27.2970,-97.4049,0.0,2.4,135.0,2.8,'11111222,11111222,11111222' 
TCOON,ioos:station:TCOON:068:1,2009-10-03T10:00:00Z,27.2970,-97.4049,0.0,2.5,164.0,2.7,'11111222,11111222,11111222' 
TCOON,ioos:station:TCOON:068:1,2009-10-03T11:00:00Z,27.2970,-97.4049,0.0,1.8,110.0,2.1,'11111222,11111222,11111222' 
TCOON,ioos:station:TCOON:068:1,2009-10-03T12:00:00Z,27.2970,-97.4049,0.0,1.5,139.0,1.7,'11111222,11111222,11111222' 
TCOON,ioos:station:TCOON:068:1,2009-10-03T13:00:00Z,27.2970,-97.4049,0.0,1.5,109.0,2.1,'11111222,11111222,11111222' 
TCOON,ioos:station:TCOON:068:1,2009-10-03T14:00:00Z,27.2970,-97.4049,0.0,2.7,138.0,3.6,'11111222,11111222,11111222' 
TCOON,ioos:station:TCOON:068:1,2009-10-03T15:00:00Z,27.2970,-97.4049,0.0,3.7,157.0,4.4,'11111222,11111222,11111222' 
TCOON,ioos:station:TCOON:068:1,2009-10-03T16:00:00Z,27.2970,-97.4049,0.0,3.4,127.0,4.2,'11111222,11111222,11111222' 
TCOON,ioos:station:TCOON:068:1,2009-10-03T17:00:00Z,27.2970,-97.4049,0.0,4.5,125.0,6.0,'11111222,11111222,11111222' 
TCOON,ioos:station:TCOON:068:1,2009-10-03T18:00:00Z,27.2970,-97.4049,0.0,6.6,120.0,7.8,'11111222,11111222,11111222' 
TCOON,ioos:station:TCOON:068:1,2009-10-03T19:00:00Z,27.2970,-97.4049,0.0,7.0,122.0,8.6,'11111222,11111222,11111222' 
TCOON,ioos:station:TCOON:068:1,2009-10-03T20:00:00Z,27.2970,-97.4049,0.0,7.5,113.0,10.5,'11111222,11111222,11111222' 
TCOON,ioos:station:TCOON:068:1,2009-10-03T21:00:00Z,27.2970,-97.4049,0.0,8.3,119.0,10.8,'11111222,11111222,11111222' 
TCOON,ioos:station:TCOON:068:1,2009-10-04T01:00:00Z,27.2970,-97.4049,0.0,8.0,135.0,10.0,'11111222,11111222,11111222' 
TCOON,ioos:station:TCOON:068:1,2009-10-04T06:00:00Z,27.2970,-97.4049,0.0,8.7,159.0,11.3,'11111222,11111222,11111222' 
TCOON,ioos:station:TCOON:068:1,2009-10-04T07:00:00Z,27.2970,-97.4049,0.0,8.4,158.0,10.8,'11111222,11111222,11111222' 
TCOON,ioos:station:TCOON:068:1,2009-10-04T08:00:00Z,27.2970,-97.4049,0.0,7.9,162.0,9.6,'11111222,11111222,11111222' 
TCOON,ioos:station:TCOON:068:1,2009-10-04T09:00:00Z,27.2970,-97.4049,0.0,8.9,158.0,10.8,'11111222,11111222,11111222' 
TCOON,ioos:station:TCOON:068:1,2009-10-04T10:00:00Z,27.2970,-97.4049,0.0,9.0,158.0,10.5,'11111222,11111222,11111222' 
TCOON,ioos:station:TCOON:068:1,2009-10-04T11:00:00Z,27.2970,-97.4049,0.0,7.8,160.0,10.0,'11111222,11111222,11111222' 
TCOON,ioos:station:TCOON:068:1,2009-10-04T12:00:00Z,27.2970,-97.4049,0.0,8.4,155.0,10.4,'11111222,11111222,11111222' 
TCOON,ioos:station:TCOON:068:1,2009-10-04T13:00:00Z,27.2970,-97.4049,0.0,6.6,165.0,8.0,'11111222,11111222,11111222' 
TCOON,ioos:station:TCOON:068:1,2009-10-04T14:00:00Z,27.2970,-97.4049,0.0,7.0,167.0,8.2,'11111222,11111222,11111222' 
TCOON,ioos:station:TCOON:068:1,2009-10-04T15:00:00Z,27.2970,-97.4049,0.0,7.3,164.0,8.7,'11111222,11111222,11111222' 
TCOON,ioos:station:TCOON:068:1,2009-10-04T16:00:00Z,27.2970,-97.4049,0.0,8.3,155.0,9.5,'11111222,11111222,11111222' 
TCOON,ioos:station:TCOON:068:1,2009-10-04T17:00:00Z,27.2970,-97.4049,0.0,8.8,141.0,11.1,'11111222,11111222,11111222' 
TCOON,ioos:station:TCOON:068:1,2009-10-04T18:00:00Z,27.2970,-97.4049,0.0,9.7,128.0,99.0,'11111222,11111222,11144222' 
TCOON,ioos:station:TCOON:068:1,2009-10-04T19:00:00Z,27.2970,-97.4049,0.0,10.3,125.0,13.0,'11111222,11111222,11111222' 
TCOON,ioos:station:TCOON:068:1,2009-10-04T20:00:00Z,27.2970,-97.4049,0.0,10.3,134.0,13.5,'11111222,11111222,11111222' 
TCOON,ioos:station:TCOON:068:1,2009-10-04T21:00:00Z,27.2970,-97.4049,0.0,9.8,130.0,11.5,'11111222,11111222,11111222' 
TCOON,ioos:station:TCOON:068:1,2009-10-04T22:00:00Z,27.2970,-97.4049,0.0,9.6,135.0,12.2,'11111222,11111222,11111222' 
TCOON,ioos:station:TCOON:068:1,2009-10-04T23:00:00Z,27.2970,-97.4049,0.0,10.5,141.0,13.5,'11111222,11111222,11111222' 
TCOON,ioos:station:TCOON:068:1,2009-10-05T00:00:00Z,27.2970,-97.4049,0.0,10.1,141.0,12.3,'11111222,11111222,11111222' 
TCOON,ioos:station:TCOON:068:1,2009-10-05T01:00:00Z,27.2970,-97.4049,0.0,8.9,143.0,11.3,'11111222,11111222,11111222' 
TCOON,ioos:station:TCOON:068:1,2009-10-05T02:00:00Z,27.2970,-97.4049,0.0,9.3,148.0,11.4,'11111222,11111222,11111222' 
TCOON,ioos:station:TCOON:068:1,2009-10-05T03:00:00Z,27.2970,-97.4049,0.0,7.4,149.0,8.8,'11111222,11111222,11111222' 
TCOON,ioos:station:TCOON:068:1,2009-10-05T04:00:00Z,27.2970,-97.4049,0.0,6.3,146.0,8.0,'11111222,11111222,11111222' 
TCOON,ioos:station:TCOON:068:1,2009-10-05T05:00:00Z,27.2970,-97.4049,0.0,7.0,156.0,8.2,'11111222,11111222,11111222' 
TCOON,ioos:station:TCOON:068:1,2009-10-05T06:00:00Z,27.2970,-97.4049,0.0,7.1,158.0,10.1,'11111222,11111222,11111222' 
TCOON,ioos:station:TCOON:068:1,2009-10-05T07:00:00Z,27.2970,-97.4049,0.0,6.9,165.0,8.2,'11111222,11111222,11111222' 
TCOON,ioos:station:TCOON:068:1,2009-10-05T08:00:00Z,27.2970,-97.4049,0.0,6.2,164.0,7.5,'11111222,11111222,11111222' 
TCOON,ioos:station:TCOON:068:1,2009-10-05T09:00:00Z,27.2970,-97.4049,0.0,5.9,154.0,7.0,'11111222,11111222,11111222' 
TCOON,ioos:station:TCOON:068:1,2009-10-05T10:00:00Z,27.2970,-97.4049,0.0,4.5,146.0,5.3,'11111222,11111222,11111222' 
TCOON,ioos:station:TCOON:068:1,2009-10-05T11:00:00Z,27.2970,-97.4049,0.0,5.6,143.0,6.6,'11111222,11111222,11111222' 
TCOON,ioos:station:TCOON:068:1,2009-10-05T12:00:00Z,27.2970,-97.4049,0.0,6.0,143.0,7.4,'11111222,11111222,11111222' 
TCOON,ioos:station:TCOON:068:1,2009-10-05T13:00:00Z,27.2970,-97.4049,0.0,6.2,141.0,7.4,'11111222,11111222,11111222' 
TCOON,ioos:station:TCOON:068:1,2009-10-05T14:00:00Z,27.2970,-97.4049,0.0,7.1,148.0,8.9,'11111222,11111222,11111222' 
TCOON,ioos:station:TCOON:068:1,2009-10-05T17:00:00Z,27.2970,-97.4049,0.0,8.1,143.0,9.3,'11111222,11111222,11111222' 
TCOON,ioos:station:TCOON:068:1,2009-10-05T18:00:00Z,27.2970,-97.4049,0.0,8.2,127.0,10.0,'11111222,11111222,11111222' 
TCOON,ioos:station:TCOON:068:1,2009-10-05T19:00:00Z,27.2970,-97.4049,0.0,9.0,124.0,99.0,'11111222,11111222,11144222' 
TCOON,ioos:station:TCOON:068:1,2009-10-05T20:00:00Z,27.2970,-97.4049,0.0,9.9,122.0,12.0,'11111222,11111222,11111222' 
TCOON,ioos:station:TCOON:068:1,2009-10-05T21:00:00Z,27.2970,-97.4049,0.0,9.3,117.0,11.8,'11111222,11111222,11111222' 
TCOON,ioos:station:TCOON:068:1,2009-10-05T22:00:00Z,27.2970,-97.4049,0.0,9.0,115.0,10.7,'11111222,11111222,11111222' 
TCOON,ioos:station:TCOON:068:1,2009-10-05T23:00:00Z,27.2970,-97.4049,0.0,8.8,117.0,11.3,'11111222,11111222,11111222' 
TCOON,ioos:station:TCOON:068:1,2009-10-06T00:00:00Z,27.2970,-97.4049,0.0,8.8,124.0,11.7,'11111222,11111222,11111222' 
TCOON,ioos:station:TCOON:068:1,2009-10-06T01:00:00Z,27.2970,-97.4049,0.0,8.2,124.0,18.2,'11111222,11111222,11111222' 
TCOON,ioos:station:TCOON:068:1,2009-10-06T02:00:00Z,27.2970,-97.4049,0.0,7.4,129.0,9.1,'11111222,11111222,11111222' 
TCOON,ioos:station:TCOON:068:1,2009-10-06T03:00:00Z,27.2970,-97.4049,0.0,7.6,134.0,10.1,'11111222,11111222,11111222' 
TCOON,ioos:station:TCOON:068:1,2009-10-06T04:00:00Z,27.2970,-97.4049,0.0,7.3,140.0,9.5,'11111222,11111222,11111222' 
TCOON,ioos:station:TCOON:068:1,2009-10-06T05:00:00Z,27.2970,-97.4049,0.0,7.1,140.0,8.7,'11111222,11111222,11111222' 
TCOON,ioos:station:TCOON:068:1,2009-10-06T06:00:00Z,27.2970,-97.4049,0.0,7.9,145.0,9.7,'11111222,11111222,11111222' 
TCOON,ioos:station:TCOON:068:1,2009-10-06T07:00:00Z,27.2970,-97.4049,0.0,8.6,152.0,10.9,'11111222,11111222,11111222' 
TCOON,ioos:station:TCOON:068:1,2009-10-06T08:00:00Z,27.2970,-97.4049,0.0,7.2,151.0,8.8,'11111222,11111222,11111222' 
TCOON,ioos:station:TCOON:068:1,2009-10-06T09:00:00Z,27.2970,-97.4049,0.0,8.0,161.0,9.6,'11111222,11111222,11111222' 
TCOON,ioos:station:TCOON:068:1,2009-10-06T10:00:00Z,27.2970,-97.4049,0.0,7.4,157.0,9.9,'11111222,11111222,11111222' 
TCOON,ioos:station:TCOON:068:1,2009-10-06T11:00:00Z,27.2970,-97.4049,0.0,8.0,158.0,12.5,'11111222,11111222,11111222' 
TCOON,ioos:station:TCOON:068:1,2009-10-06T12:00:00Z,27.2970,-97.4049,0.0,8.3,156.0,9.7,'11111222,11111222,11111222' 
TCOON,ioos:station:TCOON:068:1,2009-10-06T13:00:00Z,27.2970,-97.4049,0.0,9.4,152.0,11.7,'11111222,11111222,11111222' 
TCOON,ioos:station:TCOON:068:1,2009-10-06T14:00:00Z,27.2970,-97.4049,0.0,10.3,153.0,11.6,'11111222,11111222,11111222' 
TCOON,ioos:station:TCOON:068:1,2009-10-06T15:00:00Z,27.2970,-97.4049,0.0,9.9,153.0,11.7,'11111222,11111222,11111222' 
TCOON,ioos:station:TCOON:068:1,2009-10-06T16:00:00Z,27.2970,-97.4049,0.0,10.4,150.0,12.4,'11111222,11111222,11111222' 
TCOON,ioos:station:TCOON:068:1,2009-10-06T17:00:00Z,27.2970,-97.4049,0.0,9.1,147.0,11.4,'11111222,11111222,11111222' 
TCOON,ioos:station:TCOON:068:1,2009-10-06T18:00:00Z,27.2970,-97.4049,0.0,10.0,141.0,13.8,'11111222,11111222,11111222' 
TCOON,ioos:station:TCOON:068:1,2009-10-06T19:00:00Z,27.2970,-97.4049,0.0,9.2,137.0,12.4,'11111222,11111222,11111222' 
TCOON,ioos:station:TCOON:068:1,2009-10-06T20:00:00Z,27.2970,-97.4049,0.0,11.4,137.0,13.6,'11111222,11111222,11111222' 
TCOON,ioos:station:TCOON:068:1,2009-10-06T21:00:00Z,27.2970,-97.4049,0.0,10.1,134.0,12.1,'11111222,11111222,11111222' 
TCOON,ioos:station:TCOON:068:1,2009-10-06T22:00:00Z,27.2970,-97.4049,0.0,10.0,134.0,13.2,'11111222,11111222,11111222' 
TCOON,ioos:station:TCOON:068:1,2009-10-06T23:00:00Z,27.2970,-97.4049,0.0,11.1,130.0,13.9,'11111222,11111222,11111222' 
TCOON,ioos:station:TCOON:068:1,2009-10-07T00:00:00Z,27.2970,-97.4049,0.0,9.7,131.0,11.7,'11111222,11111222,11111222' 
TCOON,ioos:station:TCOON:068:1,2009-10-07T01:00:00Z,27.2970,-97.4049,0.0,8.6,131.0,11.0,'11111222,11111222,11111222' 
TCOON,ioos:station:TCOON:068:1,2009-10-07T02:00:00Z,27.2970,-97.4049,0.0,7.4,127.0,9.5,'11111222,11111222,11111222' 
TCOON,ioos:station:TCOON:068:1,2009-10-07T03:00:00Z,27.2970,-97.4049,0.0,8.0,123.0,10.2,'11111222,11111222,11111222' 
TCOON,ioos:station:TCOON:068:1,2009-10-07T04:00:00Z,27.2970,-97.4049,0.0,6.6,114.0,8.4,'11111222,11111222,11111222' 
TCOON,ioos:station:TCOON:068:1,2009-10-07T05:00:00Z,27.2970,-97.4049,0.0,5.3,113.0,6.7,'11111222,11111222,11111222' 
TCOON,ioos:station:TCOON:068:1,2009-10-07T06:00:00Z,27.2970,-97.4049,0.0,7.6,130.0,9.5,'11111222,11111222,11111222' 
TCOON,ioos:station:TCOON:068:1,2009-10-07T07:00:00Z,27.2970,-97.4049,0.0,8.2,138.0,20.0,'11111222,11111222,11111222' 
TCOON,ioos:station:TCOON:068:1,2009-10-07T08:00:00Z,27.2970,-97.4049,0.0,7.4,142.0,9.4,'11111222,11111222,11111222' 
TCOON,ioos:station:TCOON:068:1,2009-10-07T09:00:00Z,27.2970,-97.4049,0.0,6.5,141.0,8.3,'11111222,11111222,11111222' 
TCOON,ioos:station:TCOON:068:1,2009-10-07T10:00:00Z,27.2970,-97.4049,0.0,6.9,144.0,8.5,'11111222,11111222,11111222' 
TCOON,ioos:station:TCOON:068:1,2009-10-07T11:00:00Z,27.2970,-97.4049,0.0,7.0,155.0,7.9,'11111222,11111222,11111222' 
TCOON,ioos:station:TCOON:068:1,2009-10-07T12:00:00Z,27.2970,-97.4049,0.0,5.9,152.0,6.6,'11111222,11111222,11111222' 
TCOON,ioos:station:TCOON:068:1,2009-10-07T14:00:00Z,27.2970,-97.4049,0.0,5.8,143.0,7.5,'11111222,11111222,11111222' 
TCOON,ioos:station:TCOON:068:1,2009-10-07T15:00:00Z,27.2970,-97.4049,0.0,5.4,136.0,8.0,'11111222,11111222,11111222' 
TCOON,ioos:station:TCOON:068:1,2009-10-07T16:00:00Z,27.2970,-97.4049,0.0,7.0,115.0,9.2,'11111222,11111222,11111222' 
TCOON,ioos:station:TCOON:068:1,2009-10-07T17:00:00Z,27.2970,-97.4049,0.0,8.0,119.0,15.4,'11111222,11111222,11111222' 
TCOON,ioos:station:TCOON:068:1,2009-10-07T18:00:00Z,27.2970,-97.4049,0.0,8.5,121.0,10.4,'11111222,11111222,11111222' 
TCOON,ioos:station:TCOON:068:1,2009-10-07T19:00:00Z,27.2970,-97.4049,0.0,8.5,120.0,11.1,'11111222,11111222,11111222' 
TCOON,ioos:station:TCOON:068:1,2009-10-07T20:00:00Z,27.2970,-97.4049,0.0,9.1,117.0,11.4,'11111222,11111222,11111222' 
TCOON,ioos:station:TCOON:068:1,2009-10-07T21:00:00Z,27.2970,-97.4049,0.0,7.7,115.0,10.6,'11111222,11111222,11111222' 
TCOON,ioos:station:TCOON:068:1,2009-10-07T22:00:00Z,27.2970,-97.4049,0.0,9.1,112.0,12.2,'11111222,11111222,11111222' 
TCOON,ioos:station:TCOON:068:1,2009-10-07T23:00:00Z,27.2970,-97.4049,0.0,8.2,113.0,9.8,'11111222,11111222,11111222' 
TCOON,ioos:station:TCOON:068:1,2009-10-08T00:00:00Z,27.2970,-97.4049,0.0,8.6,115.0,10.5,'11111222,11111222,11111222' 
TCOON,ioos:station:TCOON:068:1,2009-10-08T01:00:00Z,27.2970,-97.4049,0.0,8.7,123.0,10.7,'11111222,11111222,11111222' 
TCOON,ioos:station:TCOON:068:1,2009-10-08T02:00:00Z,27.2970,-97.4049,0.0,7.5,129.0,9.5,'11111222,11111222,11111222' 
TCOON,ioos:station:TCOON:068:1,2009-10-08T03:00:00Z,27.2970,-97.4049,0.0,8.2,134.0,10.1,'11111222,11111222,11111222' 
TCOON,ioos:station:TCOON:068:1,2009-10-08T04:00:00Z,27.2970,-97.4049,0.0,8.3,126.0,10.5,'11111222,11111222,11111222' 
TCOON,ioos:station:TCOON:068:1,2009-10-08T05:00:00Z,27.2970,-97.4049,0.0,9.9,131.0,12.1,'11111222,11111222,11111222' 
TCOON,ioos:station:TCOON:068:1,2009-10-08T06:00:00Z,27.2970,-97.4049,0.0,9.1,135.0,11.5,'11111222,11111222,11111222' 
TCOON,ioos:station:TCOON:068:1,2009-10-08T07:00:00Z,27.2970,-97.4049,0.0,11.6,139.0,14.2,'11111222,11111222,11111222' 
TCOON,ioos:station:TCOON:068:1,2009-10-08T08:00:00Z,27.2970,-97.4049,0.0,10.8,142.0,12.9,'11111222,11111222,11111222' 
TCOON,ioos:station:TCOON:068:1,2009-10-08T09:00:00Z,27.2970,-97.4049,0.0,8.9,141.0,16.0,'11111222,11111222,11111222' 
TCOON,ioos:station:TCOON:068:1,2009-10-08T10:00:00Z,27.2970,-97.4049,0.0,9.4,141.0,11.8,'11111222,11111222,11111222' 
TCOON,ioos:station:TCOON:068:1,2009-10-08T11:00:00Z,27.2970,-97.4049,0.0,9.6,138.0,12.5,'11111222,11111222,11111222' 
TCOON,ioos:station:TCOON:068:1,2009-10-08T12:00:00Z,27.2970,-97.4049,0.0,9.0,137.0,28.6,'11111222,11111222,11111222' 
TCOON,ioos:station:TCOON:068:1,2009-10-08T13:00:00Z,27.2970,-97.4049,0.0,10.8,138.0,13.1,'11111222,11111222,11111222' 
TCOON,ioos:station:TCOON:068:1,2009-10-08T14:00:00Z,27.2970,-97.4049,0.0,9.8,135.0,12.4,'11111222,11111222,11111222' 
TCOON,ioos:station:TCOON:068:1,2009-10-08T15:00:00Z,27.2970,-97.4049,0.0,11.3,143.0,13.8,'11111222,11111222,11111222' 
TCOON,ioos:station:TCOON:068:1,2009-10-08T16:00:00Z,27.2970,-97.4049,0.0,11.2,147.0,13.9,'11111222,11111222,11111222' 
TCOON,ioos:station:TCOON:068:1,2009-10-08T17:00:00Z,27.2970,-97.4049,0.0,12.2,141.0,16.1,'11111222,11111222,11111222' 
TCOON,ioos:station:TCOON:068:1,2009-10-08T18:00:00Z,27.2970,-97.4049,0.0,12.5,137.0,16.8,'11111222,11111222,11111222' 
TCOON,ioos:station:TCOON:068:1,2009-10-08T19:00:00Z,27.2970,-97.4049,0.0,11.6,141.0,14.7,'11111222,11111222,11111222' 
TCOON,ioos:station:TCOON:068:1,2009-10-08T20:00:00Z,27.2970,-97.4049,0.0,12.0,137.0,16.3,'11111222,11111222,11111222' 
TCOON,ioos:station:TCOON:068:1,2009-10-08T21:00:00Z,27.2970,-97.4049,0.0,11.6,138.0,14.6,'11111222,11111222,11111222' 
TCOON,ioos:station:TCOON:068:1,2009-10-08T22:00:00Z,27.2970,-97.4049,0.0,12.0,136.0,40.0,'11111222,11111222,11111222' 
TCOON,ioos:station:TCOON:068:1,2009-10-08T23:00:00Z,27.2970,-97.4049,0.0,9.8,136.0,13.1,'11111222,11111222,11111222' 
TCOON,ioos:station:TCOON:068:1,2009-10-09T00:00:00Z,27.2970,-97.4049,0.0,12.1,138.0,15.5,'11111222,11111222,11111222' 
TCOON,ioos:station:TCOON:068:1,2009-10-09T01:00:00Z,27.2970,-97.4049,0.0,11.1,141.0,13.3,'11111222,11111222,11111222' 
TCOON,ioos:station:TCOON:068:1,2009-10-09T02:00:00Z,27.2970,-97.4049,0.0,12.0,144.0,14.9,'11111222,11111222,11111222' 
TCOON,ioos:station:TCOON:068:1,2009-10-09T03:00:00Z,27.2970,-97.4049,0.0,12.8,150.0,15.3,'11111222,11111222,11111222' 
TCOON,ioos:station:TCOON:068:1,2009-10-09T04:00:00Z,27.2970,-97.4049,0.0,10.8,149.0,13.7,'11111222,11111222,11111222' 
TCOON,ioos:station:TCOON:068:1,2009-10-09T05:00:00Z,27.2970,-97.4049,0.0,10.9,156.0,13.4,'11111222,11111222,11111222' 
TCOON,ioos:station:TCOON:068:1,2009-10-09T06:00:00Z,27.2970,-97.4049,0.0,13.2,159.0,99.0,'11111222,11111222,11144222' 
TCOON,ioos:station:TCOON:068:1,2009-10-09T07:00:00Z,27.2970,-97.4049,0.0,12.0,157.0,13.8,'11111222,11111222,11111222' 
TCOON,ioos:station:TCOON:068:1,2009-10-09T08:00:00Z,27.2970,-97.4049,0.0,11.0,160.0,14.3,'11111222,11111222,11111222' 
TCOON,ioos:station:TCOON:068:1,2009-10-09T09:00:00Z,27.2970,-97.4049,0.0,12.3,153.0,14.1,'11111222,11111222,11111222' 
TCOON,ioos:station:TCOON:068:1,2009-10-09T10:00:00Z,27.2970,-97.4049,0.0,12.3,157.0,16.5,'11111222,11111222,11111222' 
TCOON,ioos:station:TCOON:068:1,2009-10-09T11:00:00Z,27.2970,-97.4049,0.0,9.7,170.0,12.8,'11111222,11111222,11111222' 
TCOON,ioos:station:TCOON:068:1,2009-10-09T12:00:00Z,27.2970,-97.4049,0.0,9.8,161.0,11.9,'11111222,11111222,11111222' 
TCOON,ioos:station:TCOON:068:1,2009-10-09T15:00:00Z,27.2970,-97.4049,0.0,7.9,176.0,9.2,'11111222,11111222,11111222' 
TCOON,ioos:station:TCOON:068:1,2009-10-09T16:00:00Z,27.2970,-97.4049,0.0,6.7,217.0,7.9,'11111222,11111222,11111222' 
TCOON,ioos:station:TCOON:068:1,2009-10-09T17:00:00Z,27.2970,-97.4049,0.0,15.4,342.0,18.3,'11111222,11111222,11111222' 
TCOON,ioos:station:TCOON:068:1,2009-10-09T18:00:00Z,27.2970,-97.4049,0.0,12.4,2.0,15.5,'11111222,11111222,11111222' 
TCOON,ioos:station:TCOON:068:1,2009-10-09T19:00:00Z,27.2970,-97.4049,0.0,9.8,352.0,10.9,'11111222,11111222,11111222' 
TCOON,ioos:station:TCOON:068:1,2009-10-09T20:00:00Z,27.2970,-97.4049,0.0,10.3,355.0,12.4,'11111222,11111222,11111222' 
TCOON,ioos:station:TCOON:068:1,2009-10-09T21:00:00Z,27.2970,-97.4049,0.0,9.6,2.0,11.9,'11111222,11111222,11111222' 
TCOON,ioos:station:TCOON:068:1,2009-10-09T22:00:00Z,27.2970,-97.4049,0.0,8.5,355.0,9.7,'11111222,11111222,11111222' 
TCOON,ioos:station:TCOON:068:1,2009-10-09T23:00:00Z,27.2970,-97.4049,0.0,7.9,346.0,8.9,'11111222,11111222,11111222' 